Volver al catálogo

SENTINEL 3A

ActivoCienciaSSO
NORAD 41335·PAYLOAD·🇪🇺 EU

Lanzado Feb 16, 2016 desde Plesetsk Cosmodrome

Loading…

Próximos Pases (próximas 24 horas)

TLE

ActualizadoSource: Space-Track

Época: Sep 14, 2026, 15:10 UTC

1 41335U 16011A   26257.63212973  .00000072  00000-0  48004-4 0  9999
2 41335  98.6284 323.7190 0001112 106.5155 253.6148 14.26734794550813

Sigue SENTINEL 3A en tiempo real con AllMySat

Download on the App Store